Location: Gallegos de Sobrinos
(40.7169°N, 5.1122°W)
Time: 10:08:10
(UTC+00:00)

Daily predictions for brighter satellites

Satellite Brightness Start Highest point End
(mag) Time Altitude Azimuth Time Altitude Azimuth Time Altitude Azimuth
Cosmos 2279 Rocket 4.1 20:11:14 10° S 20:17:29 84° E 20:23:44 10° N
Cosmos 1812 Rocket 3.6 20:16:00 10° S 20:20:24 83° E 20:24:51 10° N
Terra 2.0 20:20:03 10° SSE 20:24:39 59° ENE 20:29:17 10° N
CENTAUR R/B 2.4 20:19:53 10° SW 20:25:05 83° NW 20:31:43 10° NNE
SPOT 5 3.8 20:20:51 10° S 20:25:28 50° W 20:30:23 10° NNW
Cosmos 44 Rocket 4.4 20:24:23 10° NNW 20:29:05 34° NE 20:33:40 10° ESE
Meteor 1-27 Rocket 3.8 20:25:35 10° S 20:31:05 61° E 20:36:33 10° NNE
CZ-4B R/B 3.9 20:27:32 10° S 20:31:20 72° WSW 20:35:01 10° NNW
CSL-04 Rocket 4.3 20:26:25 10° S 20:31:37 56° W 20:36:50 10° NNW
CZ-3 Stage 3 3.7 20:27:02 10° W 20:34:23 22° SW 20:37:52 10° SSE
Aureole 2 3.8 20:35:25 10° SSW 20:38:21 70° ESE 20:41:11 10° NNE
SKYMED 3 4.3 20:35:31 10° NNE 20:39:29 63° ESE 20:43:24 10° S
Cosmos 2221 4.1 20:36:53 10° SSW 20:40:48 38° WNW 20:44:47 10° N
Cosmos 2082 3.9 20:35:30 10° SSW 20:41:06 80° WNW 20:46:45 10° NNE
IRAS Rocket 4.3 20:35:42 10° SSE 20:41:14 87° ENE 20:46:51 10° NNW
MetOp-B 4.2 20:36:38 10° SSE 20:41:58 81° ENE 20:47:21 10° NNW
Meteor 1-11 Rocket 3.8 20:37:47 10° N 20:43:20 84° W 20:48:54 10° S
Cosmos 2263 Rocket 4.1 20:40:18 10° WSW 20:45:17 33° WNW 20:50:19 10° N
CZ-4 R/B 2.2 20:42:14 10° S 20:45:49 45° W 20:49:28 10° NNW
CZ-4B DEB 4.5 20:41:44 10° S 20:47:13 72° WSW 20:52:42 10° NNW
Okean-O 3.2 20:44:49 11° SE 20:48:40 41° ENE 20:52:47 10° N
Cosmos 2266 Rocket 4.0 20:44:12 10° N 20:50:25 72° E 20:56:43 10° SSE
Spot 2 Rocket 3.7 20:45:34 10° SSE 20:50:28 54° ENE 20:55:25 10° N
Helios 1A Rocket 2.1 20:48:21 10° NNE 20:51:29 88° ESE 20:54:36 10° SSW
NOSS 3-2 (A) 3.1 20:48:20 10° SSW 20:52:59 52° ESE 20:58:21 10° NE
CZ-4B R/B 3.2 20:48:08 10° SSE 20:53:38 87° WSW 20:59:03 10° NNW
Cosmos 1842 Rocket 4.1 20:51:20 10° SSE 20:55:29 41° E 20:59:40 10° NNE
Cosmos 1867 4.0 20:50:37 10° NW 20:55:59 59° WSW 21:01:14 10° SSE
IRS-1A Rocket 4.4 20:50:37 10° SSE 20:56:31 83° ENE 21:02:23 10° NNW
Cosmos 773 Rocket 3.9 20:52:25 10° SSW 20:57:30 77° ESE 21:02:39 10° NNE
Meteor 2-20 4.5 20:54:15 10° S 21:00:18 89° WNW 21:06:24 10° N
ADEOS 3.6 20:55:39 10° SSE 21:00:51 85° WSW 21:06:06 10° NNW
BREEZE-M DEB (TANK) 2.3 20:58:49 10° NW 21:00:54 31° NNE 21:02:13 15° E
Meteor 1-31 Rocket 4.3 20:58:21 10° SSW 21:01:19 27° W 21:04:18 10° NW
Cosmos 1570 Rocket 4.1 20:57:20 10° SSW 21:02:39 85° WNW 21:08:01 10° NNE
OAO 3 Rocket 3.5 20:58:25 10° WSW 21:02:42 41° S 21:05:58 16° ESE
Cosmos 1844 Rocket 2.6 20:59:10 10° SSW 21:04:41 71° ESE 21:10:14 10° NNE
USA 245 4.5 21:03:10 16° ESE 21:05:12 24° ENE 21:07:58 10° NNE
EXPRESS MD2 3.5 21:01:40 10° NW 21:06:08 53° NNE 21:08:14 17° E
SL-14 R/B 3.8 21:06:08 18° SSE 21:08:23 36° E 21:11:48 10° NNE
Cosmos 1238 Rocket 3.5 21:04:47 10° S 21:09:39 76° W 21:14:28 10° N
Meteor 2-10 Rocket 3.9 21:04:36 10° N 21:10:21 60° ENE 21:14:47 17° SSE
ERS-1 Rocket 4.2 21:10:00 10° SSW 21:14:38 39° W 21:19:19 10° NNW
CZ-4C R/B 3.1 21:08:24 10° NNW 21:15:42 82° NE 21:22:42 18° SE
Cosmos 1151 Rocket 4.2 21:14:27 20° ESE 21:16:10 25° E 21:19:43 10° NE
Cosmos 1066 Rocket 4.2 21:15:36 10° S 21:21:15 89° E 21:27:05 10° N
Meteor 2-4 Rocket 4.2 21:17:38 10° SSW 21:23:16 63° WNW 21:29:06 10° N
SL-24 R/B - RUBIN 2 3.9 21:20:46 10° SW 21:25:22 67° NW 21:29:45 10° NNE
Cosmos 1844 3.8 21:20:01 10° SSW 21:25:48 86° WNW 21:31:38 10° NNE
CZ-4B R/B 4.2 21:24:45 21° SE 21:27:37 40° ENE 21:32:24 10° N
Okean O Rocket 1.7 21:24:41 17° S 21:27:58 72° WSW 21:32:20 10° NNW
SL-08 R/B 4.2 21:23:54 10° N 21:28:18 48° WNW 21:32:40 10° SW
SL-16 R/B 4.0 21:24:56 10° NW 21:29:28 25° WSW 21:33:58 10° SSW
Cosmos 1766 Rocket 4.1 21:26:19 10° NNW 21:30:37 58° W 21:34:12 15° S
OAO 2 Rocket 3.9 21:27:26 10° WSW 21:32:18 39° S 21:35:03 22° ESE
In-Cosmos 22 4.2 21:27:56 14° S 21:32:52 69° E 21:38:35 10° NNE
NOSS 3-2 (C) 3.4 21:31:30 19° S 21:34:26 38° ESE 21:39:30 10° NE
Hubble Space Telescope 2.9 21:36:12 10° SSW 21:36:26 11° SSW 21:36:26 11° SSW
BlueWalker 3 3.4 21:35:16 10° WNW 21:38:07 23° SW 21:39:18 19° SSW
USA 186 1.9 21:41:05 36° SW 21:41:32 41° W 21:43:44 10° NNW
Cosmos 1943 3.7 21:36:43 10° NNW 21:42:09 53° WSW 21:46:00 19° S
CZ-4B R/B 2.8 21:42:34 35° SE 21:44:00 65° ENE 21:47:54 10° N
Cosmos 1461 3.4 21:40:51 10° NNW 21:44:06 36° NE 21:45:06 29° E
Transit 2A Rocket 4.4 21:41:37 10° NNW 21:45:59 81° ENE 21:47:44 35° SE
ATLAS 2AS CENTAUR R/B 3.8 21:44:40 10° NW 21:50:42 35° WSW 21:55:36 15° S
Cosmos 2344 4.2 21:48:48 23° SSE 21:52:32 33° ESE 21:58:53 10° NE
Cosmos 1655 Rocket 4.1 21:46:29 10° N 21:52:50 78° W 21:57:18 21° S
Cosmos 2298 Rocket 4.0 21:48:12 10° NNW 21:53:31 86° WSW 21:56:10 30° SSE
Cosmos 2150 Rocket 4.1 21:49:48 10° NNW 21:55:13 77° WSW 21:57:59 29° S
Cosmos 1500 Rocket 3.8 21:51:23 10° N 21:55:36 49° E 21:56:48 38° SE
Sich 1 3.0 21:51:22 10° N 21:55:39 77° W 21:57:32 32° S
Iridium 4 Rocket 4.1 21:55:05 30° SE 21:57:04 42° E 22:01:55 10° NNE
BREEZE-M R/B 3.9 21:57:27 35° SE 21:57:56 36° SE 22:04:21 10° ENE
GP-B 3.4 21:56:09 10° NNE 22:00:22 48° E 22:01:23 40° SE
Cosmos 1607 4.5 21:55:50 10° NNW 22:02:05 53° NE 22:05:32 26° ESE
Terra 4.3 22:00:08 10° WSW 22:02:32 14° W 22:04:56 10° WNW
NOSS 2-3 (D) 3.0 22:07:03 53° S 22:07:44 68° ESE 22:11:25 10° NE
Cosmos 1758 3.4 22:04:30 10° NNW 22:08:08 59° W 22:09:09 41° SSW
Cosmos 2285 Rocket 4.1 22:03:46 10° NNW 22:10:07 69° ENE 22:13:01 34° SE
Cosmos 1538 Rocket 4.2 22:11:35 40° SSE 22:12:59 51° ESE 22:18:00 10° NNE
Milstar 3 Cent rocket 3.6 22:11:49 10° SW 22:13:37 18° SSW 22:13:37 18° SSW
Cosmos 1943 Rocket 3.7 22:16:33 19° E 22:16:33 19° E 22:19:57 10° ENE
SPOT 3 Rocket 4.1 22:14:32 26° SSW 22:17:10 49° W 22:22:10 10° NNW
Cosmos 1244 Rocket 4.5 22:14:29 10° N 22:20:40 80° W 22:23:43 32° S
Cosmos 1328 Rocket 4.3 22:24:39 36° E 22:24:39 36° E 22:28:38 10° NNE
Ariane Rocket 3.5 22:24:12 32° SSW 22:26:19 53° W 22:31:18 10° NNW
HBTSS-SV1 4.2 22:22:20 10° WSW 22:26:42 72° S 22:27:25 58° ESE
Lacrosse 5 rocket 3.2 22:30:44 16° ENE 22:30:44 16° ENE 22:31:32 10° ENE
SL-08 R/B 4.4 22:24:20 10° N 22:30:30 79° W 22:33:07 37° S
Cosmos 1805 Rocket 3.9 22:28:27 10° NNW 22:32:41 55° W 22:33:44 43° SW
Cosmos 1340 Rocket 4.0 22:30:19 10° NNW 22:33:37 30° W 22:34:26 27° WSW
Cosmos 724 4.2 22:28:13 10° NNW 22:34:01 84° WSW 22:35:50 46° SSE
NOSS 2-3 (E) 3.7 22:33:45 29° WSW 22:35:21 56° NW 22:39:00 10° NNE
Cosmos 1408 Rocket 4.2 22:32:32 10° NNW 22:36:48 49° W 22:37:56 39° SW
Cosmos 1703 3.4 22:37:14 51° NW 22:37:14 51° NW 22:40:03 10° N
Cosmos 1666 Rocket 4.1 22:33:11 10° N 22:37:17 41° ENE 22:37:29 41° E
USA 215 3.5 22:37:29 26° ESE 22:41:19 62° NE 22:47:45 10° NW
Cosmos 1743 Rocket 3.5 22:39:57 10° NNW 22:44:17 74° W 22:44:48 64° SSW
S3M 3.8 22:48:41 46° S 22:50:39 81° E 22:56:47 10° N
CZ-2C R/B 4.3 22:55:08 20° WNW 22:55:08 20° WNW 22:56:29 10° NW
Meteor 1-22 Rocket 4.0 22:49:22 10° NNW 22:54:40 80° W 22:55:47 56° S
Meteor 1-15 Rocket 4.2 22:54:09 10° N 22:59:59 77° E 23:01:13 56° SSE
ARGOS Delta rocket 4.1 22:56:37 10° NNE 23:01:52 56° E 23:02:18 54° ESE
Cosmos 1833 Rocket 2.7 22:57:45 10° NNW 23:03:25 74° ENE 23:04:36 56° SE
Cosmos 1953 2.7 23:00:51 10° NNW 23:03:47 53° NW 23:03:47 53° NW
Cosmos 883 Rocket 4.4 23:03:52 50° S 23:05:37 86° E 23:11:47 10° N
Meteor 1-16 Rocket 4.4 23:02:14 10° N 23:07:42 58° ENE 23:08:42 51° ESE
Cosmos 1709 Rocket 4.0 23:01:21 10° N 23:07:44 86° E 23:09:28 52° SSE
Cosmos 2082 Rocket 4.3 23:04:54 10° N 23:08:41 18° NE 23:11:52 12° E
Meteor 1-23 Rocket 4.1 23:07:55 61° SSE 23:08:55 79° E 23:14:29 10° NNE
Cosmos 2278 Rocket 2.7 23:09:54 40° ESE 23:09:54 40° ESE 23:15:04 10° NE
Cosmos 1633 Rocket 3.0 23:10:46 10° N 23:15:02 84° NNW 23:15:02 84° NNW
Cosmos 1680 Rocket 3.4 23:22:43 68° ESE 23:22:50 69° ESE 23:28:00 10° NNE
Cosmos 494 Rocket 4.1 23:24:39 59° ESE 23:24:39 59° ESE 23:29:44 10° NNE
Cosmos 1400 Rocket 4.3 23:23:07 10° NNE 23:25:30 25° NE 23:25:30 25° NE
CZ-2C R/B 4.0 23:24:45 10° NNE 23:29:38 34° E 23:29:38 34° E
Helios 1B rocket 3.2 23:31:35 41° NNW 23:31:35 41° NNW 23:33:56 10° NNW
Meteor 1-12 Rocket 4.3 23:27:14 10° N 23:32:54 67° E 23:33:42 59° SE
Helios 1A 4.1 23:29:19 10° N 23:32:54 34° WNW 23:33:09 34° W
Cosmos 2056 Rocket 3.9 23:28:08 10° N 23:33:05 48° ENE 23:33:39 46° E
ARIANE 5 R/B 2.7 23:36:34 70° NE 23:36:34 70° NE 23:40:47 10° N
USA 238 DEB 3.3 23:36:16 58° SSW 23:37:33 83° ESE 23:44:09 10° NE
USA 238 3.3 23:36:31 59° SSW 23:37:46 82° ESE 23:44:22 10° NE
Okean 2 4.1 23:42:05 48° NNW 23:42:05 48° NNW 23:45:07 10° N
ACS3 Solar Sail 3.1 23:38:28 10° NE 23:42:48 22° E 23:43:11 21° E
Cosmos 1470 Rocket 3.9 23:42:39 10° NNW 23:46:41 58° WNW 23:46:41 58° WNW
ALOS 2 2.7 23:49:18 72° NNE 23:49:18 72° NNE 23:53:19 10° N
Cosmos 1420 Rocket 4.2 23:48:13 10° NNW 23:53:19 56° WSW 23:53:19 56° WSW
Cosmos 1933 Rocket 3.9 23:50:09 10° N 23:53:53 59° NE 23:53:53 59° NE
Cosmos 2369 Rocket 4.4 23:55:37 11° E 23:55:37 11° E 23:56:59 10° E
